Le nostre stazioni meteo in Italia

Pubblicità
Il mio iltempo24.it
Besancon, Francia (7288): Temperatura & dewpoint: 22.03.2017 12:00:00 - 28.03.2017 12:00:00 (CEST)Besancon, Francia (7288): Temperatura 5cm: 22.03.2017 12:00:00 - 28.03.2017 12:00:00 (CEST)Besancon, Francia (7288): Temperatura -20cm & Temperatura -100cm: 22.03.2017 12:00:00 - 28.03.2017 12:00:00 (CEST)Besancon, Francia (7288): velocità del vento & gusts: 22.03.2017 12:00:00 - 28.03.2017 12:00:00 (CEST)Besancon, Francia (7288): direzione del vento: 22.03.2017 12:00:00 - 28.03.2017 12:00:00 (CEST)Besancon, Francia (7288): reduced air pressure: 22.03.2017 12:00:00 - 28.03.2017 12:00:00 (CEST)Besancon, Francia (7288): visibility: 22.03.2017 12:00:00 - 28.03.2017 12:00:00 (CEST)Besancon, Francia (7288): ore di luce: 22.03.2017 12:00:00 - 28.03.2017 12:00:00 (CEST)Besancon, Francia (7288): precipitazioni: 22.03.2017 12:00:00 - 28.03.2017 12:00:00 (CEST)
Data & Tempo tt [°C] td [°C] tt 5cm [°C] tt -20cm [°C] tt -100cm [°C] ff [km/h] ff [kn] fx [km/h] fx [kn] dd ppp [hPa] vv [km] sd [min] rr [mm]
28.03.2017 12:00:00 - - - - - - - - - - - - - -
28.03.2017 11:00:00 14,9 4,6 18,3 10,7 9,2 13 7 31 17 SO 1024,8 20 60 0,0
28.03.2017 10:00:00 13,7 4,3 14,5 10,8 9,2 9 5 27 15 SSO 1024,7 20 60 0,0
28.03.2017 09:00:00 11,1 5,0 8,3 10,9 9,3 5 3 16 9 SSO 1024,7 20 47 0,0
28.03.2017 08:00:00 9,5 4,5 3,2 11,0 9,2 6 3 15 8 SSO 1024,6 20 0 0,0
28.03.2017 07:00:00 6,5 4,3 1,9 11,1 9,2 4 2 10 5 SSO 1024,6 20 0 0,0
28.03.2017 06:00:00 6,4 4,6 1,9 11,2 9,2 0 0 4 2 N 1024,4 20 0 0,0
28.03.2017 05:00:00 6,4 4,4 2,0 11,3 9,2 2 1 4 2 NNE 1024,0 - 0 0,0
28.03.2017 04:00:00 6,9 4,7 2,5 11,4 9,2 2 1 8 4 NNE 1023,8 - 0 0,0
28.03.2017 03:00:00 6,9 4,7 2,5 11,5 9,2 3 2 5 3 NNE 1023,9 - 0 0,0
28.03.2017 02:00:00 8,0 5,1 3,3 11,6 9,2 3 1 6 3 NNE 1023,7 - 0 0,0
28.03.2017 01:00:00 9,0 5,4 4,1 11,6 9,2 0 0 6 3 N 1023,2 - 0 0,0
28.03.2017 00:00:00 9,8 5,6 4,8 11,6 9,1 0 0 6 3 N 1022,8 - 0 0,0
27.03.2017 23:00:00 11,1 5,8 6,7 11,6 9,1 3 1 5 3 NNE 1022,5 - 0 0,0
27.03.2017 22:00:00 13,3 5,7 7,6 11,6 9,2 0 0 10 5 N 1021,8 - 0 0,0
27.03.2017 21:00:00 15,5 6,0 12,7 11,5 9,1 6 3 16 9 SO 1021,1 - 0 0,0
27.03.2017 20:00:00 16,7 5,0 14,4 11,4 9,2 6 3 23 12 OSO 1020,4 - 43 0,0
27.03.2017 19:00:00 18,8 4,2 18,9 11,1 9,1 12 7 27 15 SO 1019,6 - 60 0,0
27.03.2017 18:00:00 20,2 4,2 23,1 10,9 9,1 9 5 26 14 SO 1019,3 - 60 0,0
27.03.2017 17:00:00 20,6 4,6 24,1 10,7 9,1 10 5 22 12 SO 1018,9 30 60 0,0
27.03.2017 16:00:00 19,8 4,3 26,3 10,5 9,1 8 5 18 10 OSO 1019,4 30 60 0,0
27.03.2017 15:00:00 19,0 4,3 26,4 10,4 9,1 8 4 18 10 SO 1019,8 30 60 0,0
27.03.2017 14:00:00 18,4 4,9 25,7 10,2 9,1 8 4 19 10 SO 1020,3 25 60 0,0
27.03.2017 13:00:00 16,9 3,9 24,2 10,1 9,1 4 2 13 7 SSE 1020,8 25 60 0,0
27.03.2017 12:00:00 15,0 5,2 22,5 10,1 9,1 4 2 13 7 OSO 1021,4 25 60 0,0
27.03.2017 11:00:00 13,1 4,5 16,8 10,3 9,1 2 1 9 5 NE 1021,4 25 60 0,0
27.03.2017 10:00:00 10,5 4,4 12,5 10,4 9,1 3 2 9 5 ESE 1021,5 20 60 0,0
27.03.2017 09:00:00 5,8 3,6 1,1 10,5 9,1 0 0 8 4 N 1021,9 15 48 0,0
27.03.2017 08:00:00 3,8 2,5 0,0 10,6 9,0 0 0 4 2 N 1021,7 15 0 0,0
27.03.2017 07:00:00 4,0 2,7 0,0 10,7 9,0 0 0 5 3 N 1020,9 15 0 0,0
27.03.2017 06:00:00 3,9 2,4 0,2 10,9 9,1 3 1 9 5 N 1020,8 15 0 0,0
27.03.2017 05:00:00 5,1 2,8 0,6 11,0 9,1 0 0 5 3 N 1021,0 - 0 0,0
27.03.2017 04:00:00 4,6 2,3 0,6 11,1 9,1 5 3 9 5 NNE 1021,0 - 0 0,0
27.03.2017 03:00:00 5,8 3,3 1,9 11,2 9,0 0 0 10 5 N 1021,3 - 0 0,0
27.03.2017 02:00:00 5,5 3,3 1,1 11,3 9,0 3 2 7 4 NE 1021,3 - 0 0,0
27.03.2017 01:00:00 5,8 3,6 1,7 11,4 9,0 3 1 5 3 NE 1021,4 - 0 0,0
27.03.2017 00:00:00 6,5 3,6 1,9 11,5 9,0 0 0 3 2 N 1021,4 - 0 0,0
26.03.2017 23:00:00 7,6 3,8 2,8 11,5 9,0 0 0 5 3 N 1021,1 - 0 0,0
26.03.2017 22:00:00 8,4 4,0 3,2 11,5 9,0 3 1 5 3 NNE 1021,0 - 0 0,0
26.03.2017 21:00:00 10,0 4,6 4,6 11,5 9,0 0 0 5 3 N 1020,9 - 0 0,0
26.03.2017 20:00:00 12,4 3,6 7,5 11,5 9,0 0 0 4 2 N 1020,2 - 38 0,0
26.03.2017 19:00:00 14,1 3,8 14,7 11,3 9,0 0 0 5 3 N 1020,0 - 13 0,0
26.03.2017 18:00:00 14,3 5,1 15,1 11,2 9,0 0 0 8 4 N 1020,0 - 1 0,0
26.03.2017 17:00:00 13,9 4,2 15,2 11,1 9,0 5 3 10 5 NO 1020,3 - 0 0,0
26.03.2017 16:00:00 14,0 3,7 16,1 11,0 9,0 5 3 9 5 N 1020,4 25 0 0,0
26.03.2017 15:00:00 13,9 3,4 16,4 10,8 9,0 4 2 16 9 NO 1020,7 25 5 0,0
26.03.2017 14:00:00 14,4 3,8 18,6 10,7 9,0 6 3 13 7 NO 1020,3 25 22 0,0
26.03.2017 13:00:00 14,2 3,0 21,3 10,7 8,9 5 3 12 6 SSO 1020,6 20 60 0,0
26.03.2017 12:00:00 13,5 3,6 18,0 10,7 8,9 0 0 11 6 N 1021,1 20 60 0,0
26.03.2017 11:00:00 12,0 3,5 14,3 10,7 8,9 4 2 9 5 O 1021,2 20 40 0,0
26.03.2017 10:00:00 11,4 3,4 10,5 10,7 8,9 4 2 9 5 SE 1021,0 20 29 0,0
26.03.2017 09:00:00 9,1 3,3 8,0 10,8 8,9 2 1 5 3 SSE 1021,1 20 0 0,0
26.03.2017 08:00:00 8,7 3,3 7,9 10,8 8,9 0 0 6 3 N 1021,2 20 0 0,0
26.03.2017 07:00:00 8,9 3,3 7,9 10,8 8,9 3 1 16 9 SSO 1020,5 20 0 0,0
26.03.2017 06:00:00 9,2 3,4 8,3 10,9 8,9 8 5 15 8 SSO 1020,0 - 0 0,0
26.03.2017 05:00:00 9,4 3,6 8,6 10,9 8,9 6 3 13 7 SO 1019,7 - 0 0,0
26.03.2017 04:00:00 9,6 4,0 8,2 11,0 8,9 6 4 13 7 SO 1019,9 - 0 0,0
26.03.2017 03:00:00 9,1 4,5 8,0 11,0 8,9 0 0 4 2 N 1019,8 - 0 0,0
26.03.2017 02:00:00 9,4 4,2 8,2 11,0 8,9 0 0 8 5 N 1019,4 - 0 0,0
26.03.2017 01:00:00 10,1 4,2 9,5 11,0 8,9 4 2 11 6 NO 1019,2 - 0 0,0
26.03.2017 00:00:00 10,8 4,3 9,9 11,0 8,9 4 2 9 5 OSO 1018,7 - 0 0,0
25.03.2017 23:00:00 11,0 4,0 10,1 10,9 8,9 0 0 10 5 N 1018,5 - 0 0,0
25.03.2017 22:00:00 11,5 4,0 11,0 10,9 8,9 4 2 21 11 SSO 1018,4 - 0 0,0
25.03.2017 21:00:00 11,7 3,9 11,4 10,9 8,9 10 5 26 14 SSO 1018,2 - 0 0,0
25.03.2017 20:00:00 12,3 4,8 12,0 10,7 8,9 17 9 31 17 SSO 1017,9 - 0 0,0
25.03.2017 19:00:00 13,0 7,0 13,0 10,6 8,9 13 7 46 25 SSO 1017,2 - 20 0,0
25.03.2017 18:00:00 16,2 8,9 16,8 10,4 8,9 18 10 37 20 S 1015,7 - 50 0,0
25.03.2017 17:00:00 18,0 8,5 21,0 10,2 8,9 8 5 30 16 NE 1014,1 17 60 0,0
25.03.2017 16:00:00 17,7 8,0 23,6 10,0 8,9 9 5 29 15 NE 1014,5 17 60 0,0
25.03.2017 15:00:00 16,0 7,0 22,9 9,9 8,9 15 8 42 23 NE 1015,1 15 60 0,0
25.03.2017 14:00:00 15,0 7,0 23,2 9,8 8,9 13 7 34 18 NE 1015,9 10 60 0,0
25.03.2017 13:00:00 13,6 6,9 20,4 9,8 8,8 13 7 35 19 NE 1016,8 9 60 0,0
25.03.2017 12:00:00 12,1 6,6 18,5 9,8 8,8 14 8 37 20 NE 1017,4 9 60 0,0
25.03.2017 11:00:00 11,3 6,4 15,7 9,8 8,8 12 7 40 21 NE 1017,7 8 60 0,0
25.03.2017 10:00:00 9,9 5,7 10,8 9,9 8,8 10 5 39 21 NE 1018,4 7 60 0,0
25.03.2017 09:00:00 8,3 5,2 6,5 9,9 8,8 9 5 31 17 NE 1019,1 7 37 0,0
25.03.2017 08:00:00 7,2 4,8 5,9 10,0 8,8 7 4 28 15 NE 1019,3 7 0 0,0
25.03.2017 07:00:00 7,6 5,1 6,2 10,1 8,8 9 5 26 14 NE 1019,3 - 0 0,0
25.03.2017 06:00:00 7,7 5,3 6,0 10,2 8,8 9 5 29 16 NE 1020,1 - 0 0,0
25.03.2017 05:00:00 7,9 5,5 6,2 10,2 8,8 10 5 26 14 NE 1020,1 - 0 0,0
25.03.2017 04:00:00 8,2 5,5 6,6 10,3 8,8 7 4 24 13 NE 1020,4 - 0 0,0
25.03.2017 03:00:00 8,5 5,6 6,7 10,4 8,8 8 4 28 15 NE 1021,3 - 0 0,0
25.03.2017 02:00:00 8,6 5,7 7,1 10,5 8,8 7 4 26 14 ENE 1021,9 - 0 0,0
25.03.2017 01:00:00 8,7 6,0 7,1 10,5 8,8 9 5 26 14 NE 1021,8 - 0 0,0
25.03.2017 00:00:00 9,1 6,2 7,4 10,5 8,8 7 4 22 12 NE 1021,9 - 0 0,0
24.03.2017 23:00:00 9,2 6,5 7,8 10,5 8,8 6 4 21 11 NE 1022,4 - 0 0,0
24.03.2017 22:00:00 9,5 6,6 8,2 10,6 8,8 7 4 25 14 NE 1022,4 - 0 0,0
24.03.2017 21:00:00 10,1 6,8 8,5 10,5 8,8 8 4 22 12 NE 1021,9 - 0 0,0
24.03.2017 20:00:00 10,6 6,9 9,0 10,4 8,8 7 4 21 12 NE 1021,5 - 0 0,0
24.03.2017 19:00:00 11,3 7,2 10,8 10,4 8,8 11 6 26 14 NE 1021,3 - 0 0,0
24.03.2017 18:00:00 11,9 7,0 13,1 10,3 8,8 9 5 29 16 NE 1020,8 12 0 0,0
24.03.2017 17:00:00 12,2 7,3 14,6 10,1 8,7 10 5 28 15 NE 1021,1 12 5 0,0
24.03.2017 16:00:00 13,0 7,2 16,7 10,1 8,7 12 6 39 21 NE 1020,9 12 10 0,0
24.03.2017 15:00:00 13,1 7,3 14,7 10,1 8,8 7 4 31 17 NE 1020,8 15 0 0,0
24.03.2017 14:00:00 12,0 7,3 14,3 10,0 8,7 12 6 29 16 NE 1021,2 12 0 0,0
24.03.2017 13:00:00 11,8 7,1 14,1 10,0 8,8 6 4 23 12 NE 1021,3 12 0 0,0
24.03.2017 12:00:00 11,5 7,4 12,2 10,0 8,8 8 4 16 9 NE 1021,3 12 0 0,0
24.03.2017 11:00:00 10,6 6,5 11,3 10,0 8,7 5 3 16 9 NNE 1021,5 18 0 0,0
24.03.2017 10:00:00 9,9 5,7 9,0 10,1 8,7 8 4 21 11 NE 1020,4 15 0 0,0
24.03.2017 09:00:00 8,6 5,5 6,8 10,1 8,7 3 2 6 3 N 1020,7 15 0 0,0
24.03.2017 08:00:00 8,4 5,3 7,6 10,1 8,7 4 2 9 5 NNE 1019,6 12 0 0,0
24.03.2017 07:00:00 8,4 5,3 8,0 10,2 8,7 0 0 9 5 N 1019,8 10 0 0,0
24.03.2017 06:00:00 8,4 5,5 7,8 10,2 8,7 3 1 8 4 NE 1018,9 - 0 0,0
24.03.2017 05:00:00 8,5 5,2 7,8 10,3 8,7 3 1 5 3 N 1020,1 - 0 0,0
24.03.2017 04:00:00 8,4 5,0 7,9 10,3 8,7 0 0 5 3 N 1020,3 - 0 0,0
24.03.2017 03:00:00 8,4 5,3 8,0 10,3 8,7 0 0 9 5 N 1020,0 - 0 0,0
24.03.2017 02:00:00 8,6 5,7 8,3 10,3 8,7 4 2 14 8 SO 1020,0 - 0 0,0
24.03.2017 01:00:00 8,7 6,7 8,6 10,3 8,7 9 5 19 10 SSO 1019,1 - 0 0,0
24.03.2017 00:00:00 8,9 7,7 8,9 10,4 8,7 11 6 24 13 SO 1018,1 - 0 0,0
23.03.2017 23:00:00 9,3 8,2 9,3 10,3 8,7 12 6 29 15 SO 1016,3 - 0 0,0
23.03.2017 22:00:00 10,4 8,7 9,0 10,3 8,7 9 5 16 9 SO 1014,6 - 0 0,0
23.03.2017 21:00:00 11,7 8,4 9,4 10,2 8,7 2 1 27 15 OSO 1012,8 - 0 0,2
23.03.2017 20:00:00 14,4 7,2 12,7 10,0 8,7 4 2 14 8 E 1010,3 - 0 0,0
23.03.2017 19:00:00 15,2 6,7 14,5 9,9 8,7 5 3 23 12 NE 1008,5 - 5 0,0
23.03.2017 18:00:00 16,7 6,2 17,9 9,7 8,7 9 5 27 14 NE 1008,2 20 52 0,0
23.03.2017 17:00:00 16,9 4,9 18,2 9,6 8,7 13 7 41 22 NE 1008,1 20 54 0,0
23.03.2017 16:00:00 18,0 4,2 22,3 9,5 8,7 9 5 36 19 ENE 1008,5 20 60 0,0
23.03.2017 15:00:00 17,3 4,9 23,4 9,4 8,7 10 6 32 17 NE 1009,3 20 60 0,0
23.03.2017 14:00:00 16,0 6,4 17,2 9,2 8,7 9 5 26 14 NE 1010,0 20 35 0,0
23.03.2017 13:00:00 14,2 7,3 16,3 9,3 8,7 5 3 26 14 NE 1010,4 20 42 0,0
23.03.2017 12:00:00 12,3 6,1 11,3 9,3 8,7 3 1 15 8 ENE 1011,4 18 11 0,0
23.03.2017 11:00:00 9,0 5,4 9,4 9,3 8,7 9 5 16 9 NNE 1011,6 18 0 0,0
23.03.2017 10:00:00 8,7 4,3 8,2 9,4 8,7 3 2 9 5 NNE 1011,7 15 0 0,0
23.03.2017 09:00:00 7,0 4,0 2,6 9,5 8,7 2 1 9 5 NE 1011,8 15 0 0,0
23.03.2017 08:00:00 5,5 3,0 1,6 9,5 8,7 3 2 9 5 NE 1011,2 15 0 0,0
23.03.2017 07:00:00 5,5 3,2 1,9 9,6 8,7 4 2 9 5 NE 1011,1 10 0 0,0
23.03.2017 06:00:00 6,9 3,9 4,1 9,6 8,7 4 2 10 6 ENE 1011,0 - 0 0,0
23.03.2017 05:00:00 7,2 4,2 5,5 9,6 8,7 0 0 10 6 N 1011,5 - 0 0,0
23.03.2017 04:00:00 7,4 4,2 5,8 9,7 8,6 2 1 14 8 NNE 1011,7 - 0 0,0
23.03.2017 03:00:00 7,7 3,7 6,4 9,7 8,6 5 3 16 9 E 1011,9 - 0 0,0
23.03.2017 02:00:00 7,5 3,7 5,9 9,8 8,7 5 3 18 10 E 1012,2 - 0 0,0
23.03.2017 01:00:00 8,1 3,5 7,1 9,8 8,6 4 2 14 8 E 1012,1 - 0 0,0
23.03.2017 00:00:00 7,9 3,5 6,5 9,9 8,7 3 2 15 8 NE 1012,0 - 0 0,0
22.03.2017 23:00:00 7,3 4,6 6,5 9,8 8,6 2 1 14 7 ENE 1011,9 - 0 0,0
22.03.2017 22:00:00 7,1 4,6 6,4 9,8 8,6 3 2 11 6 ENE 1011,6 - 0 0,0
22.03.2017 21:00:00 7,2 4,5 6,1 9,9 8,6 3 2 13 7 NE 1011,4 - 0 0,0
22.03.2017 20:00:00 7,6 4,5 6,7 9,8 8,6 4 2 11 6 NE 1011,3 - 0 0,0
22.03.2017 19:00:00 8,4 4,6 8,3 9,7 8,6 6 4 16 8 NNE 1010,7 - 0 0,0
22.03.2017 18:00:00 9,3 4,1 9,9 9,6 8,6 6 3 13 7 NE 1010,9 20 0 0,0
22.03.2017 17:00:00 10,1 3,4 13,7 9,5 8,6 4 2 14 7 E 1011,1 20 26 0,0
22.03.2017 16:00:00 9,9 2,7 15,3 9,4 8,6 2 1 12 7 NE 1011,6 20 53 0,0
22.03.2017 15:00:00 8,9 3,3 11,8 9,3 8,6 4 2 10 5 NNE 1012,6 18 11 0,0
22.03.2017 14:00:00 7,8 2,9 10,6 9,3 8,6 2 1 8 4 NNO 1013,3 12 0 0,0
22.03.2017 13:00:00 7,2 2,9 9,6 9,3 8,6 0 0 6 3 N 1013,8 12 0 0,0
22.03.2017 12:00:00 - - - - - - - - - - - - - -

tt = Temperatura
td = dewpoint
tt 5cm = Temperatura 5cm
tt -20cm = Temperatura -20cm
tt -100cm = Temperatura -100cm
ff = velocità del vento
fx = gusts
dd = direzione del vento
ppp = reduced air pressure
vv = visibility
sd = ore di luce
rr = precipitazioni

Stazioni seguenti

WeatherPro
AMSI
MeteoEarth